User: anonymous   Login
Location: Unspecified
(0.0000°N, 0.0000°E)
Time: 11:03:25
(UTC+00:00)
Language:

FIREBIRD 3 - Orbit

View from above orbital plane
View from above orbital plane
View from above satellite
View from above satellite

Ground track
Ground track

The orbit data is extracted from the following two-line orbital elements,

1 40377U 15003B   17351.84582700  .00002532  00000-0  10777-3 0  9998
2 40377  99.1075 212.5071 0134191 113.1408 248.4025 15.16472601158832
Epoch (UTC): 17 December 2017 20:17:59
Eccentricity: 0.0134191
inclination: 99.1075°
perigee height: 424 km
apogee height: 609 km
right ascension of ascending node: 212.5071°
argument of perigee: 113.1408°
revolutions per day: 15.16472601
mean anomaly at epoch: 248.4025°
orbit number at epoch: 15883

The dashed part of the orbit path shows where the satellite is in the earth's shadow,  

DLR